#timestamp,LO_Frequency,Hit,StdDev 
1600810335.8,286047033.2,P
1600810355.7,286047033.1,P
1600810375.5,286047030.3,P
1600810395.4,286047030.3,Y
1600810415.2,286047000.5,P
1600810435.0,286047001.0,N
1600810435.9,286047001.0,N
1600810455.8,286047000.8,N
1600810475.6,286046999.8,N
1600810495.5,286047001.1,N
1600810515.3,286047000.2,N
1600810535.1,286047000.6,N
1600810555.9,286047002.8,N
1600810575.7,286047004.0,N
1600810595.5,286047001.3,N
1600810615.4,286047005.8,N
1600810635.2,286047007.0,N
1600810655.0,286047007.6,N
1600810656.0,286047007.6,N
1600810675.8,286047004.9,N
1600810695.6,286047005.8,N
1600810715.5,286047005.5,N
1600810735.3,286047003.0,N
1600810755.1,286047005.2,N
1600810775.9,286047005.8,N
1600810795.7,286047004.9,N
1600810815.6,286047003.0,N
1600810835.4,286047005.7,N
1600810855.2,286047005.7,N
1600810875.1,286047005.8,N
1600810876.0,286047005.8,N
1600810895.8,286047004.6,N
1600810915.6,286047006.9,N
1600810935.5,286047009.1,N
1600810955.3,286047007.7,N
1600810975.2,286047009.5,Y
1600810995.9,286047008.8,P
1600811015.7,286047006.5,N
1600811035.6,286047010.7,P
1600811055.4,286047008.1,Y
1600811075.2,286046999.9,P
1600811095.1,286047000.0,N
1600811096.0,286047000.0,N
1600811115.8,286046999.7,N
1600811135.7,286047000.9,N
1600811155.5,286047002.8,N
1600811175.3,286047002.2,N
1600811195.2,286047004.4,N
1600811215.0,286047001.3,N
1600811215.9,286047001.3,N
1600811235.8,286047004.2,N
1600811255.6,286047004.2,N
1600811275.4,286047006.0,N
1600811295.3,286047004.4,N
1600811315.1,286047003.9,N
1600811335.8,286047006.0,N
1600811355.7,286047005.0,N
1600811375.5,286047007.5,Y
1600811395.4,286047003.8,P
1600811415.2,286047003.6,P
1600811435.0,286047007.4,P
1600811435.9,286047007.4,Y
1600811455.8,286046999.7,P
1600811475.6,286046999.7,N
1600811495.4,286047002.8,N
1600811515.3,286047001.8,N
1600811535.1,286047001.5,N
1600811555.9,286047002.0,N
1600811575.7,286047002.3,N
1600811595.5,286047001.1,N
1600811615.4,286046998.5,N
1600811635.2,286046999.3,N
1600811655.1,286046997.1,N
1600811656.0,286046997.1,N
1600811675.8,286046997.8,N
1600811695.6,286046995.4,N
1600811715.5,286046997.5,N
1600811735.3,286046996.5,N
1600811755.1,286047001.1,N
1600811775.9,286046996.8,N
1600811795.7,286046997.1,N
1600811815.6,286046997.1,N
1600811835.4,286046996.8,N
1600811855.2,286046999.6,N
1600811875.1,286047000.3,N
1600811876.0,286047000.3,N
1600811895.8,286047002.5,N
1600811915.7,286047001.9,N
1600811935.5,286047001.6,N
1600811955.3,286047002.2,N
1600811975.2,286047004.4,N
1600811995.9,286047004.0,N
